Date,TemperatureHighF,TemperatureAvgF,TemperatureLowF,DewpointHighF,DewpointAvgF,DewpointLowF,HumidityHigh,HumidityAvg,HumidityLow,PressureMaxIn,PressureMinIn,WindSpeedMaxMPH,WindSpeedAvgMPH,GustSpeedMaxMPH,PrecipitationSumIn
2013-1-1,44,39,36,41,38,36,99,93,79,0.00,40.00,25,10,53,1.19
2013-1-2,39,38,36,37,36,34,99,92,82,0.00,40.00,16,11,32,0.84
2013-1-3,38,35,34,36,34,34,100,98,89,0.00,40.00,22,8,47,0.93
2013-1-4,35,34,34,35,34,34,100,100,99,0.00,40.00,3,0,5,0.01
2013-1-5,40,37,34,40,36,33,100,96,86,0.00,40.00,20,6,37,1.88
2013-1-6,36,34,31,34,32,30,100,94,79,0.00,40.00,16,7,36,0.67
2013-1-7,38,34,32,33,30,25,100,86,60,0.00,40.00,21,8,41,0.50
2013-1-8,38,35,32,32,26,16,99,69,45,0.00,40.00,11,5,21,0.14
2013-1-9,35,32,29,30,17,11,99,57,36,0.00,40.00,6,3,18,0.01
2013-1-10,33,31,29,32,29,26,99,94,82,0.00,40.00,7,2,10,0.00
2013-1-11,35,33,32,35,33,32,100,99,95,0.00,40.00,7,3,10,0.17
2013-1-12,36,34,33,36,34,32,100,99,92,0.00,40.00,7,4,14,2.21
2013-1-13,37,36,34,37,36,34,100,98,93,0.00,40.00,12,5,22,1.57
2013-1-14,38,37,35,38,36,26,100,97,65,0.00,40.00,17,5,25,0.88
2013-1-15,39,35,31,26,14,-1,65,43,19,0.00,40.00,7,3,13,0.01
2013-1-16,34,31,28,33,28,12,99,90,43,0.00,40.00,6,2,10,0.04
2013-1-17,30,27,24,29,12,6,97,54,40,0.00,40.00,35,11,59,0.01
2013-1-18,32,27,23,24,11,6,73,52,40,0.00,40.00,10,4,17,0.00
2013-1-19,34,32,30,32,28,23,100,88,66,0.00,40.00,13,6,19,0.01
2013-1-20,39,36,32,34,32,26,100,87,59,0.00,40.00,9,4,19,0.91
2013-1-21,45,40,38,37,32,27,92,71,58,0.00,40.00,12,5,15,0.46
2013-1-22,40,39,37,36,35,33,96,85,75,0.00,40.00,7,5,13,0.76
2013-1-23,43,40,36,34,33,30,92,75,60,0.00,40.00,11,4,21,0.14
2013-1-24,37,35,32,35,32,25,99,88,67,0.00,40.00,8,4,15,0.49
2013-1-25,36,30,21,26,12,-13,75,51,20,0.00,40.00,56,18,75,0.01
2013-1-26,24,19,15,-10,-15,-21,22,20,14,0.00,40.00,54,39,90,0.01
2013-1-27,14,7,3,-13,-20,-25,32,27,20,0.00,40.00,60,41,85,0.01
2013-1-28,22,13,8,19,-3,-22,94,53,23,0.00,40.00,23,7,54,0.00
2013-1-29,30,26,22,30,23,17,99,87,72,0.00,40.00,9,4,17,0.00
2013-1-30,36,33,30,35,33,30,100,98,90,0.00,40.00,12,5,21,1.60
2013-1-31,40,37,35,37,33,30,99,88,73,0.00,40.00,7,2,10,0.51
2013-2-1,42,38,35,35,32,27,99,81,57,0.00,40.00,8,4,15,0.78
2013-2-2,38,35,33,37,35,33,100,98,94,0.00,40.00,8,5,14,1.18
2013-2-3,37,34,32,36,34,32,100,98,91,0.00,40.00,7,3,11,0.90
2013-2-4,35,33,31,34,33,31,100,99,88,0.00,40.00,9,2,9,0.32
2013-2-5,44,37,34,32,25,17,91,65,38,0.00,40.00,6,3,11,0.66
2013-2-6,36,33,30,28,22,14,89,65,45,0.00,40.00,11,4,22,0.05
2013-2-7,32,30,27,32,27,14,100,90,52,0.00,40.00,9,4,20,0.02
2013-2-8,34,32,31,32,30,26,99,91,81,0.00,40.00,5,3,9,0.13
2013-2-9,37,34,32,37,33,32,100,97,90,0.00,40.00,26,11,47,1.30
2013-2-10,36,33,31,35,32,28,100,94,75,0.00,40.00,23,8,32,1.01
2013-2-11,35,30,26,31,21,10,100,72,41,0.00,40.00,6,2,9,0.25
2013-2-12,33,29,25,32,28,20,100,96,78,0.00,40.00,7,3,11,0.01
2013-2-13,35,32,30,32,31,29,100,97,81,0.00,40.00,33,10,55,0.04
2013-2-14,36,34,32,34,33,32,100,97,86,0.00,40.00,18,6,26,0.64
2013-2-15,38,32,27,33,26,4,100,80,36,0.00,40.00,7,3,19,0.03
2013-2-16,31,27,24,27,10,0,98,52,30,0.00,40.00,17,5,30,0.01
2013-2-17,33,31,27,31,28,18,100,90,57,0.00,40.00,38,11,47,0.09
2013-2-18,32,29,26,18,7,-4,58,40,22,0.00,40.00,45,24,61,0.01
2013-2-19,34,28,25,29,20,7,98,71,41,0.00,40.00,23,6,47,0.00
2013-2-20,36,32,29,31,28,23,97,85,64,0.00,40.00,10,6,18,0.11
2013-2-21,40,33,29,30,27,22,96,79,63,0.00,40.00,6,2,8,0.02
2013-2-22,33,28,24,26,12,5,80,50,34,0.00,40.00,24,6,38,0.02
2013-2-23,31,28,24,30,23,5,98,86,42,0.00,40.00,12,4,17,0.08
2013-2-24,33,31,28,32,30,26,99,97,89,0.00,40.00,9,4,17,0.01
2013-2-25,37,34,31,32,29,27,98,82,65,0.00,40.00,24,11,60,0.21
2013-2-26,38,35,32,32,28,24,99,76,59,0.00,40.00,16,12,33,0.05
2013-2-27,36,33,31,33,31,26,99,91,66,0.00,40.00,17,7,31,0.28
2013-2-28,37,33,29,33,29,23,100,88,58,0.00,40.00,20,6,31,0.08
2013-3-1,35,32,31,32,29,25,98,88,77,0.00,40.00,9,3,16,0.19
2013-3-2,36,32,30,30,24,18,94,71,51,0.00,40.00,8,4,13,0.29
2013-3-3,38,35,31,32,30,27,99,81,68,0.00,40.00,19,8,34,0.13
2013-3-4,37,34,33,35,33,31,99,95,77,0.00,40.00,15,4,26,0.61
2013-3-5,43,34,31,33,29,26,96,82,62,0.00,40.00,4,2,6,0.01
2013-3-6,36,32,30,34,31,27,100,95,82,0.00,40.00,5,2,7,0.18
2013-3-7,36,33,32,34,32,30,100,96,80,0.00,40.00,38,18,68,0.53
2013-3-8,37,33,32,36,32,30,100,97,81,0.00,40.00,20,7,32,0.60
2013-3-9,37,33,31,35,32,30,100,97,85,0.00,40.00,15,4,32,0.68
2013-3-10,32,30,29,31,28,21,99,92,63,0.00,40.00,13,4,19,0.09
2013-3-11,38,35,32,21,16,12,63,47,37,0.00,40.00,37,19,63,0.22
2013-3-12,39,32,27,13,9,3,46,38,30,0.00,40.00,22,6,47,0.01
2013-3-13,33,27,24,14,5,-2,64,38,27,0.00,40.00,14,5,19,0.00
2013-3-14,33,27,22,29,23,14,98,84,61,0.00,40.00,16,6,23,0.07
2013-3-15,41,31,28,20,12,4,66,45,33,0.00,40.00,9,3,11,0.12
2013-3-16,42,32,26,13,7,0,42,34,23,0.00,40.00,5,2,6,0.02
2013-3-17,33,31,28,13,6,1,45,35,26,0.00,40.00,43,22,60,0.00
2013-3-18,36,29,26,10,5,0,47,34,29,0.00,40.00,33,8,53,0.00
2013-3-19,28,25,22,4,-1,-9,38,31,21,0.00,40.00,59,34,78,0.00
2013-3-20,26,22,19,2,-5,-12,39,30,19,0.00,40.00,71,42,189,0.01
2013-3-21,35,26,21,6,2,-2,44,34,26,0.00,40.00,17,6,34,0.00
2013-3-22,32,28,24,32,26,5,100,90,40,0.00,40.00,22,8,30,0.03
2013-3-23,40,33,31,36,32,28,100,95,83,0.00,40.00,6,3,8,0.26
2013-3-24,35,33,30,34,31,26,99,93,75,0.00,40.00,6,3,9,0.26
2013-3-25,32,25,17,32,14,-2,100,68,33,0.00,40.00,32,12,112,0.05
2013-3-26,29,19,16,1,-4,-7,46,35,23,0.00,40.00,32,8,112,0.01
2013-3-27,33,23,17,8,-1,-11,42,34,26,0.00,40.00,10,4,26,0.00
2013-3-28,32,30,27,32,29,25,100,97,92,0.00,40.00,12,8,31,0.00
2013-3-29,35,31,31,34,27,-100,100,94,93,0.00,40.00,9,4,28,0.33
2013-3-30,44,34,32,37,30,-100,100,92,71,0.00,40.00,4,2,7,0.35
2013-3-31,45,35,32,35,33,30,100,92,69,0.00,40.00,4,2,6,0.28
2013-4-1,40,36,32,30,21,16,94,56,38,0.00,40.00,35,19,52,0.09
2013-4-2,50,36,31,31,21,17,98,56,35,0.00,40.00,19,4,42,0.00
2013-4-3,48,34,31,34,30,28,100,87,51,0.00,40.00,5,2,8,0.27
2013-4-4,50,35,31,30,20,13,92,56,28,0.00,40.00,4,2,10,0.07
2013-4-5,42,33,28,25,18,13,82,56,34,0.00,40.00,6,2,9,0.00
2013-4-6,38,32,27,32,28,22,96,85,74,0.00,40.00,14,3,19,0.12
2013-4-7,37,28,22,27,9,-5,83,46,18,0.00,40.00,20,8,27,0.02
2013-4-8,40,26,22,25,14,4,78,60,45,0.00,40.00,9,4,20,0.01
2013-4-9,28,24,18,15,3,-4,64,41,33,0.00,40.00,20,9,32,0.00
2013-4-10,31,19,13,-2,-6,-11,41,33,22,0.00,40.00,24,10,39,0.00
2013-4-11,27,20,14,1,-5,-9,43,32,22,0.00,40.00,26,7,38,0.00
2013-4-12,30,24,20,1,-1,-6,42,32,25,0.00,40.00,48,32,68,0.00
2013-4-13,38,29,24,8,1,-5,34,29,24,0.00,40.00,29,12,55,0.00
2013-4-14,38,35,31,14,7,-2,42,31,22,0.00,40.00,53,29,74,0.00
2013-4-15,51,36,30,18,13,8,49,40,25,0.00,40.00,7,4,10,0.00
2013-4-16,35,32,28,15,7,1,56,35,23,0.00,40.00,37,12,46,0.00
2013-4-17,35,31,27,11,6,-1,40,34,24,0.00,40.00,40,24,63,0.00
2013-4-18,46,36,31,21,14,7,46,39,33,0.00,40.00,9,3,30,0.00
2013-4-19,49,37,30,19,14,9,48,40,29,0.00,40.00,5,2,10,0.00
2013-4-20,51,36,33,28,19,12,83,51,26,0.00,40.00,6,2,15,0.00
2013-4-21,36,34,33,32,28,24,96,79,63,0.00,40.00,11,5,17,0.11
2013-4-22,48,40,35,31,26,21,68,56,42,0.00,40.00,11,4,21,0.07
2013-4-23,42,37,33,37,34,28,98,88,66,0.00,40.00,7,3,13,0.63
2013-4-24,46,40,36,37,33,22,99,78,47,0.00,40.00,44,6,49,0.03
2013-4-25,40,38,34,22,14,8,47,37,30,0.00,40.00,65,43,91,0.00
2013-4-26,43,37,31,18,9,1,39,31,20,0.00,40.00,33,14,53,0.00
2013-4-27,39,36,34,14,11,3,40,36,25,0.00,40.00,43,27,68,0.00
2013-4-28,43,37,33,13,4,-3,36,25,20,0.00,40.00,65,42,87,0.00
2013-4-29,50,39,34,24,14,6,61,37,25,0.00,40.00,25,6,38,0.00
2013-4-30,36,33,31,32,30,22,96,86,58,0.00,40.00,11,4,13,0.13
2013-5-1,46,38,33,34,28,24,87,67,46,0.00,40.00,12,4,15,0.01
2013-5-2,42,37,34,37,34,31,99,88,75,0.00,40.00,8,2,8,0.58
2013-5-3,42,37,34,38,36,33,100,95,81,0.00,40.00,8,3,12,0.98
2013-5-4,49,40,35,40,36,28,99,87,63,0.00,40.00,9,2,9,0.55
2013-5-5,57,42,38,28,24,20,63,47,32,0.00,40.00,9,3,17,0.02
2013-5-6,49,41,36,33,28,23,87,61,48,0.00,40.00,6,2,11,0.00
2013-5-7,49,40,36,33,31,29,89,72,50,0.00,40.00,6,3,9,0.00
2013-5-8,57,43,35,32,27,24,76,56,32,0.00,40.00,4,2,6,0.00
2013-5-9,53,44,38,36,31,24,82,61,46,0.00,40.00,9,3,12,0.02
2013-5-10,60,46,41,38,26,-100,91,55,20,0.00,40.00,16,4,22,0.03
2013-5-11,47,42,40,41,38,-100,97,87,73,0.00,40.00,11,3,14,0.26
2013-5-12,53,46,43,43,38,36,91,74,62,0.00,40.00,5,2,9,0.07
2013-5-13,51,43,40,43,41,40,98,91,72,0.00,40.00,4,1,6,0.35
2013-5-14,48,40,35,40,35,26,99,84,59,0.00,40.00,8,3,11,0.46
2013-5-15,50,37,33,33,27,19,96,69,47,0.00,40.00,13,5,20,0.20
2013-5-16,36,32,32,34,20,-100,98,96,91,0.00,40.00,10,4,12,1.26
2013-5-17,47,39,35,38,34,-100,97,87,71,0.00,40.00,5,2,7,0.64
2013-5-18,39,37,35,32,18,12,80,46,35,0.00,40.00,42,27,59,0.01
2013-5-19,47,39,35,18,10,5,44,31,22,0.00,40.00,36,22,53,0.00
2013-5-20,48,43,36,26,19,13,54,38,27,0.00,40.00,6,3,10,0.00
2013-5-21,52,44,38,32,24,20,66,47,36,0.00,40.00,7,2,10,0.00
2013-5-22,47,43,39,39,35,29,96,73,58,0.00,40.00,6,3,9,0.00
2013-5-23,53,46,39,41,39,37,99,79,61,0.00,40.00,6,2,10,0.00
2013-5-24,63,49,42,42,40,38,95,73,44,0.00,40.00,3,1,6,0.00
2013-5-25,49,42,36,42,39,36,99,90,75,0.00,40.00,5,3,9,0.00
2013-5-26,46,41,37,41,38,37,99,91,77,0.00,40.00,8,3,11,0.23
2013-5-27,55,46,42,42,40,39,98,80,61,0.00,40.00,9,3,14,0.09
2013-5-28,78,60,45,42,37,31,83,48,23,0.00,40.00,4,2,7,0.00
2013-5-29,67,56,49,46,39,31,78,54,33,0.00,40.00,4,2,8,0.00
2013-5-30,51,48,44,44,41,35,91,80,59,0.00,40.00,8,4,13,0.00
2013-5-31,48,45,43,44,42,40,99,89,78,0.00,40.00,6,3,9,0.13
2013-6-1,49,45,42,45,43,42,100,94,83,0.00,40.00,5,2,8,0.14
2013-6-2,51,44,41,44,41,39,100,91,67,0.00,40.00,9,3,12,0.03
2013-6-3,46,42,41,41,40,38,97,91,78,0.00,40.00,19,4,26,0.57
2013-6-4,47,43,41,42,40,38,97,89,78,0.00,40.00,5,2,10,0.44
2013-6-5,52,46,42,41,39,36,93,77,65,0.00,40.00,7,3,8,0.06
2013-6-6,55,49,42,43,38,34,94,67,52,0.00,40.00,9,4,14,0.05
2013-6-7,58,51,46,42,38,36,73,61,49,0.00,40.00,7,3,10,0.01
2013-6-8,68,56,47,43,40,37,73,55,34,0.00,40.00,5,2,9,0.00
2013-6-9,65,60,53,46,43,38,72,53,43,0.00,40.00,5,3,8,0.00
2013-6-10,71,62,52,46,41,35,74,46,31,0.00,40.00,8,3,14,0.00
2013-6-11,72,66,59,41,37,33,44,35,28,0.00,40.00,8,4,21,0.00
2013-6-12,72,62,51,48,40,35,78,46,31,0.00,40.00,6,3,9,0.00
2013-6-13,59,50,45,48,46,44,98,87,61,0.00,40.00,4,3,9,0.02
2013-6-14,56,52,47,48,46,43,92,80,72,0.00,40.00,8,4,13,0.01
2013-6-15,65,53,45,50,47,45,99,82,56,0.00,40.00,5,2,8,0.00
2013-6-16,76,66,55,48,43,38,67,46,29,0.00,40.00,4,3,71,0.00
2013-6-17,84,75,64,48,42,36,39,31,24,0.00,40.00,9,3,12,0.00
2013-6-18,77,66,52,47,44,38,67,45,26,0.00,40.00,17,6,23,0.00
2013-6-19,59,51,47,48,44,35,97,78,41,0.00,40.00,16,7,86,0.20
2013-6-20,56,48,45,48,46,45,99,93,72,0.00,40.00,8,2,144,0.01
2013-6-22,56,52,45,46,44,41,96,76,61,0.00,40.00,5,2,137,0.01
2013-6-23,54,49,46,49,46,44,99,90,75,0.00,40.00,7,2,108,0.16
2013-6-24,68,58,50,48,45,41,79,61,45,0.00,40.00,7,3,135,0.01
2013-6-25,72,64,59,45,41,36,54,42,35,0.00,40.00,8,4,174,0.00
2013-6-26,74,64,54,51,45,39,78,52,34,0.00,40.00,11,4,93,0.00
2013-6-27,66,56,51,53,50,48,96,81,62,0.00,40.00,6,3,201,0.00
2013-6-28,58,52,50,52,50,49,98,95,81,0.00,40.00,5,2,129,0.06
2013-6-29,63,56,50,54,51,48,97,84,67,0.00,40.00,11,3,183,0.02
2013-6-30,53,51,47,51,49,47,98,94,86,0.00,40.00,5,2,92,0.14
2013-7-1,49,48,47,48,47,45,99,96,89,0.00,40.00,17,8,47,2.67
2013-7-2,52,47,44,47,45,44,99,94,81,0.00,40.00,11,3,61,1.14
2013-7-3,53,47,45,50,46,45,99,97,89,0.00,40.00,6,2,177,0.20
2013-7-4,50,47,45,49,46,45,99,98,96,0.00,40.00,11,4,74,0.73
2013-7-5,49,48,46,48,47,46,99,98,94,0.00,40.00,5,2,89,0.90
2013-7-6,50,49,48,50,49,48,100,99,96,0.00,40.00,13,4,32,1.77
2013-7-7,50,48,46,49,48,45,99,97,94,0.00,40.00,16,7,53,3.53
2013-7-8,56,50,45,49,46,43,99,87,71,0.00,40.00,7,2,115,0.18
2013-7-9,61,54,48,48,46,42,90,73,57,0.00,40.00,9,3,164,0.00
2013-7-10,72,64,54,46,40,-100,66,44,35,0.00,40.00,16,6,164,0.00
2013-7-11,71,65,60,49,44,39,52,46,39,0.00,40.00,8,3,109,0.00
2013-7-12,71,64,54,52,46,41,88,53,43,0.00,40.00,5,2,174,0.00
2013-7-13,58,53,50,52,50,45,98,88,75,0.00,40.00,7,3,85,0.00
2013-7-14,60,56,51,51,48,44,84,76,68,0.00,40.00,9,3,69,0.00
2013-7-15,60,55,52,52,49,46,83,78,69,0.00,40.00,7,4,47,0.00
2013-7-16,69,63,55,54,50,46,83,63,49,0.00,40.00,4,1,56,0.00
2013-7-17,74,66,59,53,50,45,61,55,49,0.00,40.00,13,6,35,0.00
2013-7-18,78,68,60,52,50,47,67,52,40,0.00,40.00,9,2,56,0.00
2013-7-19,69,62,56,57,52,42,97,73,47,0.00,40.00,16,4,174,0.00
2013-7-20,70,66,62,45,41,37,50,41,30,0.00,40.00,38,14,121,0.00
2013-7-21,73,68,64,41,39,36,38,34,31,0.00,40.00,36,25,95,0.00
2013-7-22,71,66,56,55,46,37,87,52,33,0.00,40.00,22,9,70,0.00
2013-7-23,69,61,54,56,52,43,95,76,57,0.00,40.00,8,2,77,0.00
2013-7-24,72,64,54,56,48,43,98,58,41,0.00,40.00,7,2,55,0.00
2013-7-25,63,57,53,55,53,51,98,88,73,0.00,40.00,11,4,132,0.00
2013-7-26,66,58,54,54,52,48,90,79,65,0.00,40.00,8,2,96,0.00
2013-7-27,68,61,56,56,52,49,81,72,59,0.00,40.00,8,3,137,0.00
2013-7-28,67,60,53,55,52,48,92,75,60,0.00,40.00,5,2,107,0.00
2013-7-29,64,57,51,56,53,50,99,88,72,0.00,40.00,7,2,136,0.01
2013-7-30,62,57,52,55,53,51,98,88,75,0.00,40.00,7,3,154,0.01
2013-7-31,60,56,53,53,52,50,92,85,76,0.00,40.00,10,3,197,0.00
2013-8-1,60,55,52,53,50,48,97,86,71,0.00,40.00,6,2,54,0.02
2013-8-2,55,53,50,53,52,49,98,96,91,0.00,40.00,19,5,35,1.42
2013-8-3,54,53,52,54,52,51,99,97,92,0.00,40.00,20,11,50,3.21
2013-8-4,53,52,49,53,52,49,99,99,98,0.00,40.00,9,3,160,1.24
2013-8-5,53,52,51,53,52,51,99,99,94,0.00,40.00,10,2,145,1.74
2013-8-6,55,54,52,53,52,50,97,93,88,0.00,40.00,26,16,63,3.26
2013-8-7,54,53,52,53,52,50,98,94,91,0.00,40.00,21,8,51,3.99
2013-8-8,56,51,48,52,49,46,100,93,71,0.00,40.00,16,6,31,2.32
2013-8-9,54,52,49,54,51,47,100,97,92,0.00,40.00,19,8,43,3.31
2013-8-10,59,53,49,56,51,46,100,93,78,0.00,40.00,5,3,8,0.31
2013-8-11,54,52,50,54,50,46,100,92,78,0.00,40.00,9,4,14,2.22
2013-8-12,56,54,52,56,53,51,100,97,88,0.00,40.00,8,3,13,1.77
2013-8-13,58,53,52,54,50,-100,99,91,82,0.00,40.00,4,3,8,0.03
2013-8-14,62,56,51,54,47,-100,92,79,64,0.00,40.00,4,2,7,0.02
2013-8-15,64,53,51,52,33,-100,97,62,50,0.00,40.00,6,3,10,0.00
2013-8-16,53,51,50,52,50,47,99,95,87,0.00,40.00,6,3,14,1.39
2013-8-17,58,54,52,55,51,-100,100,92,72,0.00,40.00,7,4,10,1.29
2013-8-18,58,56,51,54,48,44,99,77,62,0.00,40.00,6,3,9,0.03
2013-8-19,56,50,49,52,41,-100,100,88,73,0.00,40.00,5,2,9,0.34
2013-8-20,54,51,50,53,49,-100,100,97,85,0.00,40.00,5,3,10,0.53
2013-8-21,51,50,49,51,49,48,100,98,94,0.00,40.00,4,2,7,0.62
2013-8-22,53,51,50,52,50,48,100,97,89,0.00,40.00,4,2,5,0.36
2013-8-23,59,54,49,54,51,48,100,89,78,0.00,40.00,6,3,10,0.03
2013-8-24,66,61,53,48,38,-100,82,46,35,0.00,40.00,40,26,60,0.00
2013-8-25,66,60,53,48,43,32,69,53,32,0.00,40.00,30,6,43,0.00
2013-8-26,64,56,51,47,42,37,70,59,51,0.00,40.00,5,3,8,0.00
2013-8-27,61,56,54,47,42,40,64,59,53,0.00,40.00,5,3,8,0.00
2013-8-28,57,53,50,52,50,48,99,90,77,0.00,40.00,6,3,14,1.13
2013-8-29,54,53,52,53,51,47,99,93,78,0.00,40.00,22,9,42,3.80
2013-8-30,65,58,54,52,46,43,78,65,55,0.00,40.00,6,3,9,0.20
2013-8-31,57,53,51,52,45,-100,91,76,60,0.00,40.00,4,2,9,0.02
2013-9-1,57,52,49,51,47,42,99,82,65,0.00,40.00,5,2,8,0.04
2013-9-2,53,51,48,53,49,42,100,95,72,0.00,40.00,16,5,26,1.27
2013-9-3,54,51,48,51,49,42,99,93,79,0.00,40.00,22,12,35,1.55
2013-9-4,55,50,48,51,49,45,100,95,78,0.00,40.00,12,4,26,1.03
2013-9-5,52,50,48,48,45,43,91,84,72,0.00,40.00,7,3,13,0.02
2013-9-6,53,51,48,52,46,37,99,86,57,0.00,40.00,20,8,38,2.73
2013-9-7,52,50,49,51,48,-100,100,96,88,0.00,40.00,15,4,38,2.47
2013-9-8,59,53,49,48,45,40,94,73,61,0.00,40.00,17,8,36,0.06
2013-9-9,53,51,49,53,50,47,100,96,89,0.00,40.00,24,15,61,4.64
2013-9-10,52,52,51,52,52,51,100,100,99,0.00,40.00,9,5,19,1.58
2013-9-11,60,52,47,51,48,45,100,87,64,0.00,40.00,6,3,9,1.62
2013-9-12,49,47,45,46,45,44,99,93,84,0.00,40.00,11,4,24,0.46
2013-9-13,52,50,47,50,48,45,99,92,77,0.00,40.00,10,5,28,1.99
2013-9-14,55,52,49,49,43,-100,87,75,66,0.00,40.00,9,4,12,0.10
2013-9-15,63,57,51,45,42,37,75,59,46,0.00,40.00,6,4,9,0.01
2013-9-16,61,56,50,39,36,34,57,47,37,0.00,40.00,6,4,13,0.00
2013-9-17,54,50,48,44,38,35,72,64,55,0.00,40.00,4,2,6,0.00
2013-9-18,48,47,45,44,40,39,96,79,70,0.00,40.00,5,3,7,0.08
2013-9-19,54,49,45,42,36,18,85,63,33,0.00,40.00,36,8,69,0.03
2013-9-20,54,48,45,22,18,13,40,30,21,0.00,40.00,43,18,71,0.00
2013-9-21,50,46,43,36,31,-100,70,57,45,0.00,40.00,16,9,26,0.00
2013-9-22,47,45,42,36,28,21,75,52,41,0.00,40.00,55,31,87,0.07
2013-9-23,47,42,40,35,23,17,72,47,37,0.00,40.00,59,38,87,0.01
2013-9-24,47,45,41,45,34,18,97,71,38,0.00,40.00,10,4,13,0.19
2013-9-25,47,43,39,46,42,38,99,96,87,0.00,40.00,25,10,35,3.11
2013-10-28,-200,0,200,-100,-100,-100,90,82,76,0.00,40.00,15,5,28,4.88
2013-10-29,-200,0,200,-100,-100,-100,95,82,71,0.00,40.00,23,5,35,0.56
2013-10-30,-200,0,200,-100,-100,-100,93,88,80,0.00,40.00,12,7,35,2.01
2013-10-31,-200,0,200,-100,-100,-100,95,81,65,0.00,40.00,6,2,10,0.66
2013-11-1,-200,0,200,-100,-100,-100,90,81,66,0.00,40.00,4,2,6,0.03
2013-11-2,-200,0,200,-100,-100,-100,0,0,100,0.00,40.00,5,5,7,0.00
2013-11-4,47,45,43,34,32,29,69,61,50,0.00,40.00,12,10,22,0.52
2013-11-5,48,45,42,29,25,17,53,45,35,0.00,40.00,35,20,55,0.01
2013-11-6,42,39,37,22,16,10,52,40,30,0.00,40.00,16,8,40,0.00
2013-11-7,38,37,35,35,30,16,97,78,41,0.00,40.00,8,3,9,0.11
2013-11-8,43,40,37,36,24,17,92,56,36,0.00,40.00,33,12,56,0.05
2013-11-9,39,37,36,36,25,-100,100,64,43,0.00,40.00,6,3,7,0.05
2013-11-10,38,36,33,37,36,33,100,98,94,0.00,40.00,6,3,8,1.03
2013-11-11,38,36,32,37,18,8,99,52,34,0.00,40.00,45,27,66,0.05
2013-11-12,36,34,33,15,7,-1,42,33,21,0.00,40.00,44,37,71,0.00
2013-11-13,40,36,35,27,23,15,70,58,42,0.00,40.00,5,2,8,0.00
2013-11-14,46,37,35,37,29,12,100,76,29,0.00,40.00,38,5,66,0.00
2013-11-15,40,38,35,19,14,7,48,38,25,0.00,40.00,32,10,55,0.00
2013-11-16,35,29,23,13,1,-100,39,30,23,0.00,40.00,56,38,90,0.00
2013-11-17,25,22,19,-2,-6,-12,34,28,21,0.00,40.00,60,48,91,0.00
2013-11-18,22,18,16,-6,-11,-14,30,26,20,0.00,40.00,45,37,69,0.00
2013-11-19,18,17,17,-5,-8,-10,36,30,28,0.00,40.00,4,4,12,0.00
2013-11-20,20,18,17,14,8,-6,82,65,34,0.00,40.00,13,5,20,0.00
2013-11-21,35,29,20,35,25,6,100,87,46,0.00,40.00,7,4,14,0.28
2013-11-22,42,37,29,42,32,9,100,82,43,0.00,40.00,23,9,33,1.59
2013-11-23,30,27,26,30,18,-100,100,74,41,0.00,40.00,9,4,18,0.01
2013-11-24,37,34,30,34,32,30,100,96,81,0.00,40.00,8,3,17,0.65
2013-11-25,41,38,34,33,27,21,96,65,46,0.00,40.00,8,4,15,0.27
2013-11-26,38,37,36,36,34,31,99,91,77,0.00,40.00,4,1,6,0.12
2013-11-27,39,35,32,35,30,15,100,83,47,0.00,40.00,24,6,40,0.09
2013-11-28,32,23,18,15,-1,-8,50,35,25,0.00,40.00,47,30,72,0.01
2013-11-29,22,19,17,-3,-8,-11,37,30,23,0.00,40.00,51,36,80,0.00
2013-11-30,23,20,20,-3,-12,-100,34,26,22,0.00,40.00,52,26,66,0.00
2013-12-2,36,34,33,26,18,16,73,51,45,0.00,40.00,3,2,5,0.00
2013-12-3,34,32,30,23,14,11,71,49,38,0.00,40.00,4,2,6,0.00
2013-12-4,33,31,30,20,17,13,60,54,48,0.00,40.00,4,2,5,0.00
2013-12-5,36,36,34,36,33,23,100,90,64,0.00,40.00,3,1,6,0.02
2013-12-6,38,37,35,38,37,35,100,100,100,0.00,40.00,2,0,3,0.04
2013-12-7,39,35,34,37,33,-100,100,97,92,0.00,40.00,4,1,4,0.01
2013-12-8,35,32,30,34,32,30,100,99,96,0.00,40.00,4,2,8,0.02
2013-12-9,38,35,33,33,28,26,99,77,68,0.00,40.00,4,2,7,0.01
2013-12-10,36,35,33,36,34,27,100,96,73,0.00,40.00,4,2,7,0.06
2013-12-11,36,32,23,34,13,0,100,46,28,0.00,40.00,31,12,46,0.01
2013-12-12,24,22,20,12,1,-2,69,40,34,0.00,40.00,8,4,27,0.00
2013-12-13,29,24,20,29,19,9,98,81,55,0.00,40.00,7,4,11,0.00
2013-12-14,28,26,23,28,15,-100,100,65,46,0.00,40.00,20,10,39,0.00
2013-12-15,26,23,21,10,7,3,57,49,38,0.00,40.00,14,7,32,0.00
2013-12-16,23,22,22,7,7,6,51,50,48,0.00,40.00,14,9,23,0.00
2013-12-18,30,29,24,30,25,11,100,88,52,0.00,40.00,17,8,39,0.00
2013-12-19,32,31,30,31,26,22,100,85,68,0.00,40.00,12,6,28,0.00
2013-12-20,35,32,30,34,25,20,100,75,57,0.00,40.00,5,2,8,0.13
2013-12-21,38,35,34,36,34,-100,100,97,88,0.00,40.00,6,3,9,0.81
2013-12-22,40,38,33,34,27,13,90,65,41,0.00,40.00,32,10,57,0.17
2013-12-23,34,26,22,13,2,-6,43,35,24,0.00,40.00,50,20,68,0.01
2013-12-24,29,23,22,13,0,-6,57,36,28,0.00,40.00,9,5,18,0.00
2013-12-26,32,31,30,25,20,15,76,64,50,0.00,40.00,3,2,6,0.00
2013-12-27,34,32,28,33,29,11,100,90,44,0.00,40.00,9,5,12,0.28
2013-12-28,39,35,33,36,32,-100,100,91,75,0.00,40.00,6,2,11,0.45
2013-12-29,38,35,32,34,30,24,100,82,61,0.00,40.00,12,4,16,0.03
2013-12-30,39,37,35,35,31,28,100,79,64,0.00,40.00,7,3,10,0.02
2013-12-31,40,36,33,36,34,31,100,93,69,0.00,40.00,26,9,46,1.02
2014-1-1,39,36,34,36,35,33,100,94,88,0.00,40.00,27,12,50,1.48
2014-1-2,37,35,33,34,27,21,97,74,59,0.00,40.00,6,3,12,0.01